GW5759 Weather Reports


time (UTC)temp
C
wind
direction
speed
KPH
gust
KPH
rain 1hr
cm
rain 24hr
cm
rain mn
cm
humidity
%
barometer
mb
20260504081803 22 258 0.0 1.6 0.00 0.00 0.00 44 1013.3
20260504081118 21 235 0.0 3.2 0.00 0.00 0.00 47 1013.3
20260504050003 11 125 0.0 1.6 0.00 0.00 0.00 67 1013.0
20260504045403 11 90 0.0 1.6 0.00 0.00 0.00 67 1012.9
20260504044504 11 0 0.0 0.0 0.00 0.00 0.00 70 1012.9
20260504043604 10 0 0.0 0.0 0.00 0.00 0.00 69 1013.0
20260504041803 9 0 0.0 0.0 0.00 0.00 0.00 73 1013.2
20260504040903 9 0 0.0 0.0 0.00 0.00 0.00 72 1012.8
20260504040003 10 0 0.0 0.0 0.00 0.00 0.00 69 1012.9
20260504035620 10 127 0.0 1.6 0.00 0.00 0.00 68 1012.7
20260504034503 9 119 0.0 1.6 0.00 0.00 0.00 69 1012.5
20260504033603 9 0 0.0 0.0 0.00 0.00 0.00 71 1012.6
20260504032703 10 0 0.0 0.0 0.00 0.00 0.00 68 1012.6
20260504031803 9 0 0.0 0.0 0.00 0.00 0.00 69 1012.2
20260504030903 9 0 0.0 0.0 0.00 0.00 0.00 69 1012.4
20260504025403 9 116 0.0 1.6 0.00 0.00 0.00 70 1012.1
20260504022703 9 0 0.0 0.0 0.00 0.00 0.00 70 1012.3
20260504021803 10 0 0.0 0.0 0.00 0.00 0.00 70 1012.3
20260504021116 10 0 0.0 0.0 0.00 0.00 0.00 69 1012.4
20260504020219 10 0 0.0 0.0 0.00 0.00 0.00 68 1012.2
20260504015403 10 0 0.0 0.0 0.00 0.00 0.00 68 1012.3
20260504014503 10 0 0.0 0.0 0.00 0.00 0.00 67 1012.1
20260504013603 10 0 0.0 0.0 0.00 0.00 0.00 67 1012.1
20260504012703 11 0 0.0 0.0 0.00 0.00 0.00 64 1011.7
20260504011121 12 170 0.0 1.6 0.00 0.00 0.00 61 1012.1
20260504010219 12 152 1.6 3.2 0.00 0.00 0.00 61 1012.2
20260504005618 12 155 1.6 3.2 0.00 0.00 0.00 61 1012.3
20260504004718 12 187 0.0 1.6 0.00 0.00 0.00 62 1012.2
20260504003817 11 181 0.0 1.6 0.00 0.00 0.00 65 1012.3
20260504002916 11 142 0.0 1.6 0.00 0.00 0.00 67 1012.3
20260504001803 11 194 0.0 1.6 0.00 0.00 0.00 66 1012.2
20260504001119 11 213 0.0 3.2 0.00 0.00 0.00 66 1012.2
20260504000003 10 0 0.0 0.0 0.00 0.00 0.00 70 1012.4
20260503235403 10 0 0.0 0.0 0.00 0.00 0.00 70 1012.5
20260503234717 10 0 0.0 0.0 0.00 0.00 0.00 70 1012.4
20260503233603 10 0 0.0 0.0 0.00 0.00 0.00 71 1012.3
20260503232920 10 0 0.0 0.0 0.00 0.00 0.00 72 1012.6
20260503230004 12 0 0.0 0.0 0.00 0.00 0.00 60 1012.8
20260503225403 12 0 0.0 0.0 0.00 0.00 0.00 60 1012.8
20260503224503 13 196 0.0 1.6 0.00 0.00 0.00 59 1012.7
20260503223603 13 196 0.0 1.6 0.00 0.00 0.00 58 1012.7
20260503222703 13 0 0.0 0.0 0.00 0.00 0.00 56 1012.8
20260503221803 14 131 0.0 1.6 0.00 0.00 0.00 54 1013.0
20260503221118 14 131 0.0 1.6 0.00 0.00 0.00 53 1013.2
20260503220003 15 0 0.0 0.0 0.00 0.00 0.00 52 1013.0
20260503215617 15 122 0.0 1.6 0.00 0.00 0.00 52 1012.9
20260503213603 16 219 0.0 1.6 0.00 0.00 0.00 48 1013.0
20260503212920 16 219 0.0 1.6 0.00 0.00 0.00 46 1013.1
20260503211803 17 200 1.6 3.2 0.00 0.00 0.00 44 1012.9
20260503210004 18 212 1.6 3.2 0.00 0.00 0.00 43 1013.1
20260503205617 18 204 1.6 3.2 0.00 0.00 0.00 42 1013.0
20260503203603 18 207 1.6 6.4 0.00 0.00 0.00 41 1013.1
20260503202703 18 225 1.6 3.2 0.00 0.00 0.00 40 1013.0
20260503201803 18 198 3.2 6.4 0.00 0.00 0.00 40 1012.8
20260503201118 19 191 1.6 4.8 0.00 0.00 0.00 40 1013.0
20260503200004 19 222 3.2 6.4 0.00 0.00 0.00 40 1013.1
20260503195403 19 205 3.2 9.7 0.00 0.00 0.00 40 1013.0
20260503194503 19 202 1.6 4.8 0.00 0.00 0.00 41 1013.0
20260503193819 18 216 1.6 4.8 0.00 0.00 0.00 41 1012.9
20260503192703 18 217 1.6 4.8 0.00 0.00 0.00 42 1013.0
20260503191803 19 214 1.6 4.8 0.00 0.00 0.00 42 1013.0
20260503191117 19 194 1.6 3.2 0.00 0.00 0.00 42 1012.9
20260503190003 20 214 1.6 3.2 0.00 0.00 0.00 41 1012.6
20260503184720 20 212 1.6 4.8 0.00 0.00 0.00 41 1012.7
20260503183603 20 216 1.6 3.2 0.00 0.00 0.00 40 1012.4
20260503182704 21 212 1.6 3.2 0.00 0.00 0.00 40 1012.4
20260503182018 21 221 1.6 3.2 0.00 0.00 0.00 39 1012.4
20260503180903 21 223 1.6 4.8 0.00 0.00 0.00 39 1012.4
20260503180004 21 200 0.0 3.2 0.00 0.00 0.00 38 1012.6
20260503175403 22 211 0.0 1.6 0.00 0.00 0.00 36 1012.2
20260503174719 22 212 1.6 1.6 0.00 0.00 0.00 34 1012.2
20260503173603 23 179 1.6 4.8 0.00 0.00 0.00 31 1012.1
20260503172918 23 165 1.6 4.8 0.00 0.00 0.00 30 1012.1
20260503171803 24 208 1.6 3.2 0.00 0.00 0.00 30 1012.2
20260503170904 25 179 1.6 6.4 0.00 0.00 0.00 28 1012.2
20260503170216 25 211 1.6 4.8 0.00 0.00 0.00 28 1012.3
20260503150903 27 210 3.2 6.4 0.00 0.00 0.00 27 1012.6
20260503130903 27 164 4.8 11.3 0.00 0.00 0.00 26 1014.2